Weather History for West Yellowstone, MT

Change the Weather History Date:

Monday, November 12, 2012

  Actual Average Record
Temperature  
Mean Temperature 19 °F -  
Max Temperature 23 °F 38 °F 48 °F (2013)
Min Temperature 15 °F 16 °F 10 °F (2013)
Degree Days  
Heating Degree Days 46    
Moisture  
Dew Point -    
Average Humidity    
Maximum Humidity    
Minimum Humidity    
Precipitation  
Precipitation 0.00 in - - ()
Sea Level Pressure  
Sea Level Pressure 30.30 in    
Wind  
Wind Speed 10 mph (SSW)    
Max Wind Speed 16 mph    
Max Gust Speed 24 mph    
Visibility 7 miles    
Events Snow    
Averages and records for this station are not official NWS values.
T = Trace of Precipitation, MM = Missing Value Source: NWS Daily Summary

Daily Weather History Graph

Daily Weather History Graph

Search for Another Location

Airport:

Trip Planner

Search our weather history database for the weather conditions in past years. The results will help you decide how hot, cold, wet, or windy it might be!

Date:

Astronomy

Nov. 12, 2012 Rise Set
Actual Time 7:18 AM MST 4:58 PM MST
Civil Twilight 6:46 AM MST 5:30 PM MST
Nautical Twilight 6:11 AM MST 6:05 PM MST
Astronomical Twilight 5:37 AM MST 6:39 PM MST
Moon 5:45 AM MST (11/12) 4:07 PM MST (11/12)
Length of Visible Light 10h 43m
Length of Day
9h 40m
Waning Crescent, 2% of the Moon is Illuminated
Nov 12
Waning Crescent
Nov 13
New
Nov 20
First Quarter
Nov 28
Full
Dec 6
Last Quarter

Hourly Weather History & Observations

Time (MST) Temp. Windchill Dew Point Humidity Pressure Visibility Wind Dir Wind Speed Gust Speed Precip Events Conditions
12:10 AM 15.8 °F 4.2 °F - N/A% 30.27 in 6.0 mi SW 9.2 mph 16.1 mph N/A Snow Light Snow
12:30 AM 15.8 °F 2.7 °F - N/A% 30.27 in 10.0 mi SW 11.5 mph 18.4 mph N/A   Overcast
12:50 AM 15.8 °F 4.2 °F - N/A% 30.27 in 10.0 mi SW 9.2 mph - N/A   Overcast
1:10 AM 15.8 °F 5.1 °F - N/A% 30.27 in 7.0 mi SW 8.1 mph - N/A Snow Light Snow
1:30 AM 17.6 °F 6.4 °F - N/A% 30.27 in 7.0 mi SW 9.2 mph 16.1 mph N/A Snow Light Snow
1:50 AM 17.6 °F 8.2 °F - N/A% 30.27 in 8.0 mi SW 6.9 mph 16.1 mph N/A   Overcast
2:10 AM 17.6 °F 5.0 °F - N/A% 30.28 in 8.0 mi SW 11.5 mph 20.7 mph N/A   Overcast
2:30 AM 17.6 °F 4.3 °F - N/A% 30.29 in 8.0 mi SW 12.7 mph 21.9 mph N/A   Overcast
2:50 AM 17.6 °F 3.2 °F - N/A% 30.29 in 8.0 mi WSW 15.0 mph 19.6 mph N/A   Overcast
3:10 AM 15.8 °F 5.1 °F - N/A% 30.30 in 8.0 mi SW 8.1 mph 17.3 mph N/A   Overcast
3:30 AM 15.8 °F 6.1 °F - N/A% 30.29 in 9.0 mi SW 6.9 mph 17.3 mph N/A   Overcast
3:50 AM 15.8 °F 4.2 °F - N/A% 30.30 in 9.0 mi WSW 9.2 mph 18.4 mph N/A Snow Light Snow
4:10 AM 15.8 °F 2.7 °F - N/A% 30.29 in 10.0 mi SW 11.5 mph - N/A   Overcast
4:30 AM 15.8 °F 2.7 °F - N/A% 30.30 in 10.0 mi SSW 11.5 mph 19.6 mph N/A   Overcast
4:50 AM 15.8 °F 2.1 °F - N/A% 30.31 in 10.0 mi SW 12.7 mph 21.9 mph N/A   Overcast
5:10 AM 17.6 °F 8.2 °F - N/A% 30.31 in 10.0 mi SW 6.9 mph - N/A   Overcast
5:50 AM 17.6 °F 4.3 °F - N/A% 30.31 in 10.0 mi SW 12.7 mph 18.4 mph N/A   Overcast
6:10 AM 17.6 °F 5.0 °F - N/A% 30.32 in 7.0 mi SW 11.5 mph - N/A   Overcast
6:30 AM 17.6 °F 4.3 °F - N/A% 30.31 in 7.0 mi SW 12.7 mph 16.1 mph N/A Snow Light Snow
6:50 AM 17.6 °F 5.0 °F - N/A% 30.32 in 7.0 mi SSW 11.5 mph 20.7 mph N/A   Overcast
7:10 AM 17.6 °F 7.3 °F - N/A% 30.32 in 7.0 mi SW 8.1 mph 18.4 mph N/A   Overcast
7:30 AM 17.6 °F 6.4 °F - N/A% 30.32 in 9.0 mi SW 9.2 mph - N/A   Overcast
7:50 AM 17.6 °F 8.2 °F - N/A% 30.34 in 7.0 mi SSW 6.9 mph - N/A Snow Light Snow
8:10 AM 17.6 °F 6.4 °F - N/A% 30.33 in 9.0 mi SSW 9.2 mph - N/A Snow Light Snow
8:50 AM 17.6 °F 6.4 °F - N/A% 30.34 in 9.0 mi SSW 9.2 mph - N/A   Scattered Clouds
9:10 AM 19.4 °F 8.6 °F - N/A% 30.34 in 4.0 mi SSW 9.2 mph - N/A Snow Light Snow
9:30 AM 19.4 °F 10.4 °F - N/A% 30.34 in 3.0 mi South 6.9 mph - N/A Snow Light Snow
9:50 AM 19.4 °F 7.9 °F - N/A% 30.34 in 5.0 mi SW 10.4 mph - N/A Snow Light Snow
10:10 AM 19.4 °F 6.0 °F - N/A% 30.34 in 3.0 mi SSW 13.8 mph 18.4 mph N/A Snow Light Snow
10:30 AM 19.4 °F 7.2 °F - N/A% 30.33 in 5.0 mi SSW 11.5 mph 20.7 mph N/A   Haze
10:50 AM 19.4 °F 6.0 °F - N/A% 30.33 in 10.0 mi SW 13.8 mph 18.4 mph N/A   Scattered Clouds
11:10 AM 21.2 °F 8.3 °F - N/A% 30.33 in 8.0 mi SW 13.8 mph 21.9 mph N/A   Mostly Cloudy
11:30 AM 21.2 °F 8.3 °F - N/A% 30.32 in 6.0 mi SW 13.8 mph 20.7 mph N/A   Haze
11:50 AM 21.2 °F 8.3 °F - N/A% 30.32 in 3.0 mi SSW 13.8 mph - N/A   Mostly Cloudy
12:10 PM 21.2 °F 8.3 °F - N/A% 30.32 in 2.5 mi SSW 13.8 mph 20.7 mph N/A Snow Light Snow
12:30 PM 21.2 °F 7.3 °F - N/A% 30.31 in 2.0 mi SSW 16.1 mph 24.2 mph N/A Snow Light Snow
12:50 PM 21.2 °F 11.7 °F - N/A% 30.31 in 5.0 mi SW 8.1 mph - N/A   Haze
1:10 PM 21.2 °F 9.5 °F - N/A% 30.31 in 3.0 mi SSW 11.5 mph 17.3 mph N/A   Overcast
1:30 PM 21.2 °F 8.9 °F - N/A% 30.30 in 2.0 mi SSW 12.7 mph 18.4 mph N/A   Overcast
1:50 PM 23.0 °F 9.6 °F - N/A% 30.29 in 5.0 mi SW 16.1 mph 21.9 mph N/A   Haze
2:10 PM 23.0 °F 10.1 °F - N/A% 30.29 in 4.0 mi SSW 15.0 mph 23.0 mph N/A   Haze
2:30 PM 21.2 °F 7.8 °F - N/A% 30.29 in 3.0 mi SW 15.0 mph - N/A Snow Light Snow
2:50 PM 21.2 °F 8.9 °F - N/A% 30.29 in 2.5 mi SW 12.7 mph - N/A Snow Light Snow
3:30 PM 23.0 °F 11.7 °F - N/A% 30.29 in 8.0 mi SW 11.5 mph 16.1 mph N/A   Overcast
3:50 PM 23.0 °F 11.7 °F - N/A% 30.29 in 10.0 mi SSW 11.5 mph 20.7 mph N/A   Overcast
4:10 PM 23.0 °F 12.4 °F - N/A% 30.29 in 10.0 mi SW 10.4 mph - N/A   Overcast
4:30 PM 23.0 °F 13.9 °F - N/A% 30.29 in 10.0 mi SW 8.1 mph - N/A   Overcast
4:50 PM 23.0 °F 13.9 °F - N/A% 30.29 in 10.0 mi SSW 8.1 mph - N/A   Overcast
5:10 PM 21.2 °F 13.6 °F - N/A% 30.29 in 7.0 mi South 5.8 mph - N/A   Overcast
5:30 PM 21.2 °F 10.1 °F - N/A% 30.29 in 10.0 mi SSW 10.4 mph - N/A   Mostly Cloudy
5:50 PM 21.2 °F 10.9 °F - N/A% 30.29 in 5.0 mi SSW 9.2 mph - N/A   Haze
6:10 PM 21.2 °F 10.9 °F - N/A% 30.29 in 9.0 mi SSW 9.2 mph - N/A   Overcast
6:30 PM 21.2 °F 9.5 °F - N/A% 30.28 in 5.0 mi SSW 11.5 mph - N/A   Haze
6:50 PM 21.2 °F 10.1 °F - N/A% 30.28 in 10.0 mi SSW 10.4 mph - N/A   Overcast
7:10 PM 21.2 °F 10.9 °F - N/A% 30.28 in 10.0 mi SSW 9.2 mph - N/A   Overcast
7:30 PM 21.2 °F 11.7 °F - N/A% 30.28 in 7.0 mi South 8.1 mph - N/A Snow Light Snow
7:50 PM 21.2 °F 10.1 °F - N/A% 30.28 in 7.0 mi South 10.4 mph - N/A Snow Light Snow
8:10 PM 21.2 °F 12.6 °F - N/A% 30.28 in 4.0 mi South 6.9 mph - N/A Snow Light Snow
8:30 PM 21.2 °F 13.6 °F - N/A% 30.28 in 4.0 mi South 5.8 mph - N/A Snow Light Snow
8:50 PM 21.2 °F 13.6 °F - N/A% 30.28 in 4.0 mi South 5.8 mph - N/A   Haze
9:10 PM 21.2 °F 16.4 °F - N/A% 30.28 in 5.0 mi South 3.5 mph - N/A Snow Light Snow
9:30 PM 21.2 °F 14.9 °F - N/A% 30.28 in 5.0 mi SE 4.6 mph - N/A Snow Light Snow
9:50 PM 19.4 °F 14.3 °F - N/A% 30.29 in 6.0 mi SSW 3.5 mph - N/A   Haze
10:10 PM 21.2 °F 11.7 °F - N/A% 30.28 in 10.0 mi SSW 8.1 mph - N/A   Overcast
10:30 PM 21.2 °F 10.1 °F - N/A% 30.28 in 10.0 mi SW 10.4 mph - N/A   Overcast
10:50 PM 21.2 °F 12.6 °F - N/A% 30.28 in 10.0 mi SSW 6.9 mph - N/A   Overcast
11:10 PM 21.2 °F 14.9 °F - N/A% 30.29 in 10.0 mi SW 4.6 mph - N/A   Overcast
11:30 PM 21.2 °F 11.7 °F - N/A% 30.29 in 10.0 mi SSW 8.1 mph - N/A   Overcast
11:50 PM 21.2 °F 11.7 °F - N/A% 30.28 in 10.0 mi SW 8.1 mph - N/A   Overcast